When you browse on this site, cookies collect data to enhance your experience and personalize the content and advertising you see.
Visit our Privacy Policy to learn more. By continuing to use the site, you agree to this use of cookies and data.
  • In United Kingdom
  • List of Countries
  • For 7 days
  • Water Temperature
  • Satellite Maps
  • Weather Map
  • Weather Widgets
  • user-avatar
    Login

    Hourly Weather Limeil-Brevannes

    Today, 16 February, Saturday

    Time Temperature Precipitation Wind Pressure Humidity
    00:00 +8°C° 0 mm 1 mps 764 mmHg 70%
    01:00 +7°C° 0 mm 1 mps 764 mmHg 71%
    02:00 +7°C° 0 mm 1 mps 764 mmHg 71%
    03:00 +7°C° 0 mm 1 mps 764 mmHg 72%
    04:00 +7°C° 0 mm 1 mps 764 mmHg 75%
    05:00 +5°C° 0 mm 2 mps 764 mmHg 77%
    06:00 +5°C° 0 mm 2 mps 764 mmHg 80%
    07:00 +6°C° 0 mm 2 mps 764 mmHg 78%
    08:00 +6°C° 0 mm 2 mps 764 mmHg 76%
    09:00 +7°C° 0 mm 2 mps 764 mmHg 74%
    10:00 +9°C° 0 mm 2 mps 764 mmHg 68%
    11:00 +10°C° 0 mm 2 mps 764 mmHg 63%
    12:00 +13°C° 0 mm 2 mps 764 mmHg 57%
    13:00 +14°C° 0 mm 2 mps 763 mmHg 56%
    14:00 +14°C° 0 mm 2 mps 763 mmHg 55%
    15:00 +15°C° 0 mm 2 mps 763 mmHg 54%
    16:00 +14°C° 0 mm 2 mps 763 mmHg 59%
    17:00 +12°C° 0 mm 2 mps 762 mmHg 64%
    18:00 +10°C° 0 mm 2 mps 762 mmHg 69%
    19:00 +10°C° 0 mm 2 mps 762 mmHg 70%
    20:00 +9°C° 0 mm 2 mps 762 mmHg 72%
    21:00 +8°C° 0 mm 2 mps 762 mmHg 73%
    22:00 +8°C° 0 mm 2 mps 762 mmHg 73%
    23:00 +8°C° 0 mm 2 mps 762 mmHg 72%

    Tomorrow, 17 February, Sunday

    Time Temperature Precipitation Wind Pressure Humidity
    00:00 +7°C° 0 mm 2 mps 762 mmHg 72%
    01:00 +7°C° 0 mm 2 mps 761 mmHg 72%
    02:00 +7°C° 0 mm 2 mps 761 mmHg 71%
    03:00 +6°C° 0 mm 2 mps 760 mmHg 71%
    04:00 +6°C° 0 mm 2 mps 760 mmHg 70%
    05:00 +5°C° 0 mm 3 mps 760 mmHg 69%
    06:00 +5°C° 0 mm 3 mps 760 mmHg 69%
    07:00 +7°C° 0 mm 3 mps 760 mmHg 63%
    08:00 +7°C° 0 mm 3 mps 760 mmHg 57%
    09:00 +7°C° 0 mm 4 mps 760 mmHg 51%
    10:00 +10°C° 0 mm 4 mps 760 mmHg 48%
    11:00 +11°C° 0 mm 4 mps 760 mmHg 45%
    12:00 +13°C° 0 mm 4 mps 759 mmHg 42%
    13:00 +13°C° 0 mm 4 mps 759 mmHg 43%
    14:00 +14°C° 0 mm 4 mps 759 mmHg 43%
    15:00 +15°C° 0 mm 4 mps 758 mmHg 43%
    16:00 +13°C° 0 mm 3 mps 759 mmHg 49%
    17:00 +13°C° 0 mm 2 mps 759 mmHg 54%
    18:00 +12°C° 0 mm 2 mps 759 mmHg 59%
    19:00 +10°C° 0 mm 2 mps 759 mmHg 62%
    20:00 +9°C° 0 mm 2 mps 759 mmHg 65%
    21:00 +9°C° 0 mm 2 mps 759 mmHg 68%
    22:00 +8°C° 0 mm 2 mps 759 mmHg 70%
    23:00 +8°C° 0 mm 2 mps 759 mmHg 71%

    Day after tomorrow, 18 February, Monday

    Time Temperature Precipitation Wind Pressure Humidity
    00:00 +8°C° 0 mm 2 mps 759 mmHg 73%
    01:00 +7°C° 0 mm 2 mps 758 mmHg 75%
    02:00 +7°C° 0 mm 2 mps 758 mmHg 76%
    03:00 +7°C° 0 mm 2 mps 758 mmHg 78%
    04:00 +6°C° 0 mm 2 mps 758 mmHg 80%
    05:00 +6°C° 0 mm 2 mps 758 mmHg 82%
    06:00 +6°C° 0 mm 2 mps 758 mmHg 84%
    07:00 +5°C° 0 mm 3 mps 758 mmHg 80%
    08:00 +7°C° 0 mm 3 mps 758 mmHg 76%
    09:00 +7°C° 0 mm 3 mps 758 mmHg 72%
    10:00 +9°C° 0 mm 3 mps 758 mmHg 68%
    11:00 +10°C° 0 mm 3 mps 758 mmHg 64%
    12:00 +12°C° 0 mm 4 mps 757 mmHg 59%
    13:00 +12°C° 0 mm 4 mps 757 mmHg 59%
    14:00 +12°C° 0 mm 4 mps 757 mmHg 58%
    15:00 +13°C° 0 mm 4 mps 756 mmHg 58%
    16:00 +12°C° 0 mm 3 mps 756 mmHg 63%
    17:00 +12°C° 0 mm 2 mps 756 mmHg 68%
    18:00 +12°C° 0 mm 2 mps 757 mmHg 72%
    19:00 +10°C° 0.1 mm 2 mps 757 mmHg 76%
    20:00 +10°C° 0.1 mm 2 mps 757 mmHg 79%
    21:00 +10°C° 0.1 mm 2 mps 757 mmHg 82%
    22:00 +9°C° 0.6 mm 2 mps 758 mmHg 83%
    23:00 +9°C° 0.6 mm 2 mps 758 mmHg 84%

    19 February, Tuesday

    Time Temperature Precipitation Wind Pressure Humidity
    00:00 +9°C° 0.6 mm 1 mps 758 mmHg 85%
    01:00 +8°C° 0.1 mm 2 mps 758 mmHg 84%
    02:00 +8°C° 0.1 mm 2 mps 758 mmHg 84%
    03:00 +7°C° 0.1 mm 2 mps 758 mmHg 83%
    04:00 +7°C° 0 mm 2 mps 759 mmHg 86%
    05:00 +6°C° 0 mm 2 mps 759 mmHg 88%
    06:00 +6°C° 0 mm 2 mps 759 mmHg 90%
    07:00 +6°C° 0 mm 2 mps 760 mmHg 88%
    08:00 +6°C° 0 mm 2 mps 760 mmHg 86%
    09:00 +7°C° 0 mm 2 mps 761 mmHg 84%
    10:00 +8°C° 0 mm 3 mps 761 mmHg 78%
    11:00 +9°C° 0 mm 3 mps 761 mmHg 72%
    12:00 +10°C° 0 mm 3 mps 761 mmHg 66%
    13:00 +10°C° 0 mm 3 mps 760 mmHg 64%
    14:00 +11°C° 0 mm 3 mps 760 mmHg 63%
    15:00 +11°C° 0 mm 3 mps 759 mmHg 61%
    16:00 +10°C° 0 mm 3 mps 760 mmHg 64%
    17:00 +9°C° 0 mm 2 mps 760 mmHg 68%
    18:00 +10°C° 0 mm 1 mps 760 mmHg 72%
    19:00 +9°C° 0 mm 1 mps 760 mmHg 74%
    20:00 +9°C° 0 mm 1 mps 760 mmHg 76%
    21:00 +9°C° 0 mm 1 mps 760 mmHg 78%
    22:00 +9°C° 0 mm 1 mps 760 mmHg 80%
    23:00 +7°C° 0 mm 2 mps 760 mmHg 82%

    20 February, Wednesday

    Time Temperature Precipitation Wind Pressure Humidity
    00:00 +7°C° 0 mm 2 mps 760 mmHg 84%
    01:00 +7°C° 0 mm 2 mps 760 mmHg 84%
    02:00 +7°C° 0 mm 2 mps 760 mmHg 85%
    03:00 +6°C° 0 mm 2 mps 760 mmHg 85%
    04:00 +6°C° 0 mm 2 mps 760 mmHg 86%
    05:00 +6°C° 0 mm 2 mps 760 mmHg 87%
    06:00 +5°C° 0 mm 2 mps 760 mmHg 88%
    07:00 +6°C° 0 mm 2 mps 760 mmHg 85%
    08:00 +7°C° 0 mm 3 mps 760 mmHg 82%
    09:00 +7°C° 0 mm 3 mps 761 mmHg 78%
    10:00 +9°C° 0 mm 3 mps 761 mmHg 73%
    11:00 +10°C° 0 mm 3 mps 761 mmHg 68%
    12:00 +12°C° 0 mm 3 mps 761 mmHg 63%
    13:00 +12°C° 0 mm 3 mps 761 mmHg 62%
    14:00 +13°C° 0 mm 3 mps 760 mmHg 61%
    15:00 +13°C° 0 mm 3 mps 760 mmHg 60%
    16:00 +12°C° 0 mm 3 mps 760 mmHg 65%
    17:00 +12°C° 0 mm 2 mps 761 mmHg 70%
    18:00 +12°C° 0 mm 2 mps 761 mmHg 75%
    19:00 +10°C° 0 mm 2 mps 761 mmHg 78%
    20:00 +10°C° 0 mm 2 mps 761 mmHg 81%
    21:00 +9°C° 0 mm 2 mps 761 mmHg 84%
    22:00 +9°C° 0 mm 2 mps 761 mmHg 86%
    23:00 +8°C° 0 mm 2 mps 761 mmHg 87%

    21 February, Thursday

    Time Temperature Precipitation Wind Pressure Humidity
    00:00 +8°C° 0 mm 2 mps 761 mmHg 89%
    01:00 +8°C° 0 mm 2 mps 762 mmHg 90%
    02:00 +7°C° 0 mm 2 mps 762 mmHg 91%
    03:00 +8°C° 0 mm 1 mps 762 mmHg 92%
    04:00 +8°C° 0 mm 1 mps 762 mmHg 93%
    05:00 +8°C° 0 mm 1 mps 762 mmHg 93%
    06:00 +7°C° 0 mm 1 mps 762 mmHg 94%
    07:00 +7°C° 0 mm 2 mps 763 mmHg 90%
    08:00 +8°C° 0 mm 2 mps 763 mmHg 87%
    09:00 +9°C° 0 mm 2 mps 763 mmHg 83%
    10:00 +10°C° 0 mm 2 mps 763 mmHg 76%
    11:00 +13°C° 0 mm 2 mps 763 mmHg 69%
    12:00 +14°C° 0 mm 2 mps 763 mmHg 61%
    13:00 +15°C° 0 mm 2 mps 763 mmHg 59%
    14:00 +15°C° 0 mm 2 mps 763 mmHg 56%
    15:00 +16°C° 0 mm 2 mps 763 mmHg 54%
    16:00 +15°C° 0 mm 1 mps 763 mmHg 58%
    17:00 +14°C° 0 mm 1 mps 763 mmHg 63%
    18:00 +12°C° 0 mm 1 mps 764 mmHg 68%
    19:00 +11°C° 0 mm 0 mps 764 mmHg 70%
    20:00 +10°C° 0 mm 0 mps 765 mmHg 73%
    21:00 +10°C° 0 mm 0 mps 765 mmHg 76%
    22:00 +10°C° 0 mm 0 mps 765 mmHg 77%
    23:00 +9°C° 0 mm 0 mps 765 mmHg 78%
    Show more